Location: Eindhoven
(51.4416°N, 5.4697°E)
Time: 03:34:56
(UTC+01:00)

Tiros 1 - Pass Details

Date: 24 November 2019
Orbit: 630 x 664 km, 48.4° (Epoch: 04 December)

Event Time Altitude Azimuth Distance (km) Brightness Sun altitude
Rises 18:27:23 0° 278° (W) 2,922 11.9 -16.4°
Reaches altitude 10° 18:30:04 10° 265° (W) 2,014 11.0 -16.8°
Maximum altitude 18:33:43 23° 212° (SSW) 1,338 9.3 -17.3°
Drops below altitude 10° 18:37:23 10° 160° (SSE) 2,019 9.6 -17.9°
Enters shadow 18:39:23 - 149° (SSE) 2,682 10.1 -18.2°
